www.pogodaiklimat.ru

Погода и климат >> Архив погоды >> Россия >> Чукотка >> Билибино


ПОГОДА в Билибино

  • Прогноз погоды в Билибино
  • Монитор погоды в Билибино

АРХИВ ПОГОДЫ в Билибино

Время (UTC), дата Ветер
(напр.,м/с)
 
Видим.   Явления Облачность Т
(С)
Тd
(С)
f
(%)
Тe
(С)
Тes
(С)
Комфортность P
(гПа)
Po
(гПа)
Тmin
(С)
Tmax
(С)
R
(мм)
R24
(мм)
S
(см)
09 12.07 СВ 3
{8}
50 км 8/8 1000 м
[Sc]
+25.1 +11.1 41 +26 +26 жарко 1005.3 973.7 +31.7
12 12.07 С 2
{4}
50 км 6/6 1000 м
[Sc]
+17.4 +12.7 74 +18 +18 1006.5 974.1
15 12.07 штиль 0
{2}
50 км 6/3 600 м
[Sc Ci fib]
+11.2 +10.3 94 +10 +10 1007.0 974.0
18 12.07 СВ 4
{4}
50 км 9/9 1000 м
[Sc]
+17.2 +11.5 69 +17 +17 1006.5 974.1
21 12.07 Ю 2
{6}
50 км 10/1 1000 м
[Sc Ac trans]
+20.6 +13.6 64 +24 +26 комфорт 1006.3 974.3 +10.8
00 13.07 Ю 3
{5}
50 км ясно +26.8 +13.6 44 +29 +37 жарко 1004.5 973.2
03 13.07 Ю 4
{9}
50 км гроза без осадков 8/5 600 м
[Cb calv Ci fib]
+26.7 +12.0 40 +28 +31 жарко 1003.3 972.0
06 13.07 ЮЗ 3
{10}
50 км {гроза} 6/4 600 м
[Cb calv Cs]
+28.5 +12.5 37 +30 +32 жарко 1002.4 971.3
09 13.07 СВ 2
{10}
50 км 4/4 600 м
[Cu med, cong]
+21.4 +14.4 64 +24 +25 комфорт 1003.6 971.8 +29.2
12 13.07 З 1
{3}
50 км 4/3 1000 м
[Cu hum Ci fib]
+13.7 +12.6 93 +14 +14 1005.0 972.3
15 13.07 СВ 1
{2}
50 км 4/1 1000 м
[Cu hum Ci sp]
+11.5 +11.1 97 +11 +11 1005.8 972.9
18 13.07 штиль 0
{2}
50 км ясно +15.8 +12.9 83 +16 +18 1006.2 973.6
21 13.07 ЮВ 1
{3}
50 км 1/0
[Ci fib]
+20.9 +13.0 61 +25 +31 комфорт 1006.0 974.0 +11.1
00 14.07 Ю 2
{6}
50 км 10/3 600 м
[Cu hum Cs]
+24.1 +13.1 50 +26 +32 жарко 1004.9 973.4
03 14.07 З 5
{8}
50 км 10/4 600 м
[Cu med, cong Ac cuf Cs]
+25.3 +13.6 48 +27 +29 жарко 1004.1 972.7
06 14.07 З 4
{9}
50 км 10/3 600 м
[Cu Sc Cs]
+24.6 +12.9 48 +27 +28 жарко 1003.6 972.1
09 14.07 СЗ 2
{8}
20 км дым 10/3 1000 м
[Sc Ac trans Ci]
+21.5 +13.7 61 +24 +24 комфорт 1003.5 971.7 +25.6
12 14.07 С 1
{4}
20 км дым 6/1 1000 м
[Sc Ac trans Ci fib]
+12.6 +11.7 94 +13 +13 1004.3 971.5
15 14.07 штиль 0
{2}
20 км туман поземный 4/3 1000 м
[Sc Ac trans]
+9.1 +8.9 99 +8 +8 1003.8 970.5
18 14.07 С 1
{2}
20 км дым 3/1 1000 м
[Sc Ac trans Ci fib]
+13.8 +12.3 91 +14 +15 1002.2 969.6
21 14.07 Ю 1
{3}
20 км дым 4/1 1000 м
[Sc Ac trans]
+20.5 +13.9 66 +24 +29 комфорт 1000.3 968.5 +8.8
00 15.07 ЮЗ 2
{5}
20 км дым 9/3 1000 м
[Sc Ac trans Ci ing]
+22.9 +14.2 58 +26 +31 жарко 999.1 967.6
03 15.07 СЗ 4
{8}
20 км дым 10/6 1000 м
[Sc Ac trans]
+23.0 +13.5 55 +26 +27 жарко 998.4 967.0
06 15.07 З 5
{10}
20 км дым 10/10 600 м
[Cb cap]
+18.4 +12.9 70 +18 +18 1000.1 968.0
09 15.07 СВ 4
{9}
50 км 10/10 600 м
[Cb cap]
+13.8 +9.3 74 +12 +12 1002.2 969.6 +23.8
12 15.07 Ю 3
{6}
50 км 10/4 1000 м
[Sc Ac As]
+12.0 +10.3 89 +10 +10 1001.5 968.7
15 15.07 С 4
{8}
50 км 10/10 1000 м
[Sc]
+8.7 +6.5 86 +6 +6 1004.4 971.1
18 15.07 ЮЗ 1
{6}
50 км 10/10 1000 м
[Sc]
+8.4 +7.6 95 +8 +8 1005.1 971.7
21 15.07 штиль 0
{2}
20 км {ливн. осадки} 9/8 600 м
[Cb cap Ac trans]
+11.0 +8.4 84 +10 +11 1005.0 971.9 +8.4 0.1
00 16.07 З 4
{8}
50 км {ливн. осадки} 9/8 600 м
[Cb cap Ac trans Ci fib]
+14.2 +5.3 55 +13 +14 1004.7 972.0
03 16.07 З 5-10
{13}
50 км 8/5 600 м
[Cb cap Cs]
+16.3 +1.9 38 +15 +18 1003.8 971.3
06 16.07 З 4
{11}
50 км 8/8 600 м
[Cb cap]
+14.4 +3.0 46 +13 +14 1003.9 971.3
09 16.07 ЮЗ 2
{8}
50 км 8/8 600 м
[Cb cap]
+12.2 +6.1 66 +11 +12 1004.1 971.2 +16.5
12 16.07 СЗ 1
{6}
50 км {ливн. осадки} 9/9 600 м
[Cb cap]
+9.4 +5.5 77 +9 +9 1005.1 971.8
15 16.07 СЗ 2
{4}
50 км 10/5 1000 м
[Sc Ac As]
+8.5 +5.9 84 +7 +7 1005.3 971.9
18 16.07 ЮЗ 2
{7}
10 км слаб. дождь 10/6 1000 м
[Sc As op]
+6.4 +6.8 100 +4 +4 1005.4 972.0
21 16.07 З 4
{7}
20 км {дождь} 10/6 1000 м
[Sc Ac As]
+9.5 +4.8 72 +7 +7 1005.9 972.6 +7.4 0.6
00 17.07 З 4
{8}
50 км в посл. час ливневой дождь 8/8 600 м
[Cb cap Ci ing]
+11.2 +6.8 74 +9 +10 1005.5 972.4
03 17.07 З 5
{10}
50 км в посл. час ливневой дождь 9/6 600 м
[Cb cap Ac cuf Ci ing]
+13.0 +3.6 53 +11 +12 1004.8 972.0
06 17.07 З 4
{8}
50 км {ливн. осадки} 9/8 600 м
[Cb cap Ac cuf]
+12.7 +3.0 52 +11 +11 1004.4 971.6
09 17.07 З 1
{7}
50 км 9/8 600 м
[Sc diur, vesp Ac trans]
+10.9 +2.9 58 +11 +11 1004.8 971.7 +13.9 0.0
12 17.07 штиль 0
{5}
50 км 8/8 1000 м
[Sc]
+6.1 +4.0 86 +5 +5 1005.5 971.8
15 17.07 С 1
{1}
50 км 10/10 600 м
[Sc]
+5.6 +4.7 94 +4 +4 1005.3 971.6
18 17.07 штиль 0
{2}
50 км 10/10 1000 м
[Sc]
+7.2 +5.6 90 +6 +6 1005.0 971.5
21 17.07 СЗ 1
{8}
50 км 8/3 600 м
[Cu Sc Ac trans Ci fib]
+9.7 +5.8 77 +9 +12 1004.7 971.5 +4.0
00 18.07 З 3
{8}
50 км 10/10 600 м
[Sc]
+12.1 +4.1 58 +11 +11 1004.8 971.9
03 18.07 СЗ 3
{8}
50 км 8/8 600 м
[Cb cap]
+12.6 +3.0 52 +11 +13 1005.4 972.5
06 18.07 СЗ 3
{10}
50 км 8/6 600 м
[Cu Sc Ci]
+12.5 +1.5 47 +11 +12 1005.8 972.9
09 18.07 СЗ 3
{7}
50 км 9/3 600 м
[Sc Ac As Ci]
+11.0 -1.4 42 +10 +10 1007.2 974.0 +13.3
12 18.07 С 5
{7}
50 км 6/6 1000 м
[Sc]
+6.0 +2.1 76 +2 +2 1009.8 976.0
15 18.07 СВ 4
{7}
50 км 8/8 1000 м
[Sc]
+4.8 +0.9 76 +1 +1 1011.1 977.1
18 18.07 СВ 5
{8}
50 км 8/3 600 м
[Sc Cs]
+5.3 +0.4 71 +1 +1 1011.9 977.9
21 18.07 СВ 5
{9}
50 км 4/1 600 м
[Sc Ci fib]
+7.3 +0.2 61 +4 +6 1012.3 978.5 +4.3
00 19.07 СВ 2
{8}
50 км 10/1 600 м
[Sc]
+11.7 -0.2 44 +11 +15 1011.6 978.3
03 19.07 ЮВ 2
{5}
50 км 3/1 1000 м
[Sc Ci fib]
+14.6 -0.9 34 +15 +22 1010.3 977.4
06 19.07 ЮЗ 1
{5}
50 км 6/3 1000 м
[Sc Ci fib]
+15.4 -0.9 33 +16 +19 1009.5 976.7

 

Местоположение метеостанции Билибино (Чукотка, Россия): широта 68.05 долгота 166.40 высота над уровнем моря 280 м.

В архиве по умолчанию представлена погода в Билибино за последнюю неделю. Архивные данные за месяц целиком и за предыдущие месяцы, начиная с января 2011 года, Вы можете получить, выбрав интересующий диапазон дат из раскрывающегося списка и нажав кнопку "Ввод!".


*Определитесь, кто Вы:
робот инопланетянин человек

Внимание! Время в таблицах - всемирное. Для получения местного времени необходимо прибавить поправку, которая равна 12 ч.

Смотрите также архив погоды в соседних городах и на ближайших метеорологических станциях:

Погода в Островном (Чукотка, Россия) (96 км)
Погода в Илирнее (Чукотка, Россия) (109 км)
Погода в Раучуе (Чукотка, Россия) (161 км)
Погода в Баимке (Чукотка, Россия) (194 км)
Погода в Чауне (Чукотка, Россия) (198 км)
Погода в Анюйске (Чукотка, Россия) (205 км)
Погода на Айон Острове (Чукотка, Россия) (217 км)
Погода в Константиновской (Чукотка, Россия) (220 км)
Погода в Черском (Якутия, Россия) (222 км)
Погода в Певеке (Чукотка, Россия) (238 км)

Пояснения к столбцам:

Ветер - указаны скорость ветра в м/с - средняя за 10 мин, порывы в срок и между сроками (в фигурных скобках) и направление, откуда дует ветер: С - северный, СВ - северо-восточный, В - восточный, ЮВ - юго-восточный, Ю - южный, ЮЗ - юго-западный, З - западный, СЗ - северо-западный.
Видимость - горизонтальная дальность видимости в метрах или километрах. При видимости от 1 до 10 км при отсутствии осадков обычно наблюдается дымка, при ухудшении видимости до 1 км и менее - туман. В сухую погоду видимость может ухудшаться дымом, пылью или мглою.
Явления - указаны атмосферные явления, наблюдавшиеся в срок или в последний час перед сроком; фигурными скобками обозначены явления, наблюдавшиеся между сроками (за 1-3 часа до срока); квадратными скобками обозначены град или гололедные отложения с указанием их диаметра в мм.
Облачность - указаны через наклонную черту общая и нижняя облачность в баллах и высота нижней границы облаков в метрах; квадратными скобками обозначены формы облаков: Ci - перистые, Cs - перисто-слоистые, Cc - перисто-кучевые, Ac - высококучевые, As - высокослоистые, Sc - слоисто-кучевые, Ns - слоисто-дождевые, Cu - кучевые, Cb - кучево-дождевые. Подробнее классификацию облаков см. в Атласе облаков (PDF).
T - Температура воздуха - температура, измеренная на высоте 2 м над землей.
Td - Температура точки росы - температура, при понижении до которой содержащийся в воздухе водяной пар достигнет насыщения.
f - Относительная влажность воздуха - влажноcть воздуха, измеренная на высоте 2 м над землей.
Te - Эффективная температура - температура, которую ощущает одетый по сезону человек в тени. Характеристика душности погоды. При расчете учитывается влияние влажности воздуха и скорости ветра на теплоощущения человека.
Tes - Эффективная температура на солнце - температура, которую ощущает человек, с поправкой на солнечный нагрев. Характеристика знойности погоды. Зависит от высоты солнца над горизонтом, облачности и скорости ветра. Ночью, в пасмурную погоду, а также при ветре 12 м/с и более поправка равна нулю.
P - Атмосферное давление - приведенное к уровню моря атмосферное давление.
Po - Атмосферное давление - измеренное на уровне метеостанции атмосферное давление.
Tmin - Минимальная температура - минимум температуры воздуха на высоте 2 м над землей.
Tmax - Максимальная температура - максимум температуры воздуха на высоте 2 м над землей.
R - Количество осадков - Количество выпавших осадков за период времени, мм. При наведении курсора мыши на число - период времени, за который выпало указанное количество осадков.
R24 - Количество осадков - Количество выпавших осадков за 24 часа, мм.
S - Снежный покров - Высота снежного покрова, см. При наведении курсора мыши на число - состояние снежного покрова и степень покрытия местности в баллах.